カタログに戻る

STARLINK-36200

運用中通信VLEO
NORAD 67101·PAYLOAD·🇺🇸 United States

打ち上げ Dec 14, 2025 から Vandenberg Space Force Base

Loading…

次のパス (今後24時間)

TLE

最新Source: CelesTrak SupGP

元期: Sep 15, 2026, 03:00 UTC

1 67101C 25298AC  26258.12548611 -.00048735  00000+0 -40835-2 0  2580
2 67101  70.0000 256.9702 0003848 268.1698 293.7077 14.98359386    10

AllMySatでSTARLINK-36200をリアルタイム追跡

Download on the App Store